Regional Weather Roundup
Issued by NWS New Orleans/Baton Rouge, LA

Home | Current Version | Previous Version | Text Only | Print | Product List | Glossary On
Versions: 1 2 3 4 5 6 7 8 9 10 11 12 13 14 15 16 17 18 19 20 21 22 23 24 25 26 27 28 29 30 31 32 33 34 35 36 37 38 39 40 41 42 43 44 45 46 47 48 49 50
376
ASUS44 KLIX 211105
RWRLIX
NEW ORLEANS REGIONAL WEATHER ROUNDUP
NATIONAL WEATHER SERVICE NEW ORLEANS LA
600 AM CDT THU AUG 21 2014

NOTE: "FAIR" INDICATES FEW OR NO CLOUDS BELOW 12,000 FEET WITH NO
      SIGNIFICANT WEATHER AND/OR OBSTRUCTIONS TO VISIBILITY.
      SKY/WX - SKY CONDITION AND SIGNIFICANT WEATHER.
      TMP - AIR TEMPERATURE.     DP    - DEWPOINT TEMPERATURE.
      RH  - RELATIVE HUMIDITY.   PRES  - PRESSURE.
      HI  - HEAT INDEX.          WCI   - WIND CHILL INDEX.

*  THESE STATIONS ARE NOT NWS OR FAA STATIONS AND ARE NOT UNDER
   NWS QUALITY CONTROL.

LAZ038-040-048-061>063-065>067-069-211200-
SOUTHEAST LOUISIANA

CITY           SKY/WX    TMP DP  RH WIND       PRES   REMARKS
N.O. AUDUBON     N/A     78  78 100 MISG        N/A
N.O. INTL ARPT MOCLDY    77  74  90 CALM      30.10S
N.O. LAKEFRONT PTCLDY    79  76  90 S3        30.11R
N.O. DOWNTOWN*   N/A     82  73  74 S3        30.11R
SLIDELL        PTCLDY    74  71  91 N3        30.11R
BATON ROUGE    MOCLDY    74  72  93 NE3       30.10R
BOOTHVILLE     CLEAR     83  76  79 S5        30.11R
BELLE CHASSE   PTCLDY    75  72  90 CALM      30.10R
BOGALUSA*        N/A     74  70  89 CALM      30.13R
GALLIANO*      NOT AVBL
NEW ROADS*       N/A     75  74  98 CALM      30.10R
GONZALES*        N/A     73  73  99 CALM      30.10R
HAMMOND*       PTCLDY    72  70  94 CALM      30.13R
HOUMA*         CLEAR     73  70  91 CALM      30.10R FOG
PORT FOURCHON* SUNNY     84  77  79 S3        30.11S

$$

MSZ070-080>082-211200-
SOUTHERN MISSISSIPPI

CITY           SKY/WX    TMP DP  RH WIND       PRES   REMARKS
MCCOMB         PTCLDY    71  69  93 CALM      30.12R
GULFPORT       PTCLDY    77  75  93 CALM      30.10R
BILOXI         PTCLDY    79  77  91 CALM      30.11R
PASCAGOULA     CLEAR     74  73  97 CALM      30.11R

$$

COASTAL OBSERVATIONS
LAKE AND NEARSHORE STATIONS

STATION/POSITION TIME  TEMP    WIND        PRES    WAVE
                       AIR SEA DIR/SP/G            HT/PER
                 (UTC) (F)     (DEG/KT/KT) (MB)    (FT/S)
PASCAGOULA       1100   81     330/  5/  5 1018.9
WAVELAND YACHT   1100   79     300/  1/  1 1018.8
GRAND ISLE       1100   84 88  210/  3/  4 1019.6
SOUTHWEST PASS   1100   85 88  240/  6/  7 1019.5
NEW CANAL        1100   80 83  190/  3/  4 1019.5
SHELL BEACH      1100   82 82  220/  2/  3 1019.1

OFFSHORE STATIONS

STATION/POSITION TIME  TEMP    WIND        PRES    WAVE
                       AIR SEA DIR/SP/G            HT/PER
                 (UTC) (F)     (DEG/KT/KT) (MB)    (FT/S)
64 S DAUPHIN ISL 1033   85 87  250/  6/  8 1019.5

$$




USA.gov is the U.S. government's official web portal to all federal, state and local government web resources and services.